User: anonymous   Login
Location: Unspecified
(0.0000°N, 0.0000°E)
Time: 11:17:10
(UTC+00:00)
Language:

Helios 1A - Orbit

View from above orbital plane
View from above orbital plane
View from above satellite
View from above satellite

Ground track
Ground track

The orbit data is extracted from the following two-line orbital elements,

1 23605U 95033A   17346.01249856 0.00000370  00000-0  37501-4 0    05
2 23605  98.2295  41.0534 0011291 214.9421 145.0578 14.90931431    02
Epoch (UTC): 12 December 2017 00:17:59
Eccentricity: 0.0011291
inclination: 98.2295°
perigee height: 587 km
apogee height: 603 km
right ascension of ascending node: 41.0534°
argument of perigee: 214.9421°
revolutions per day: 14.90931431
mean anomaly at epoch: 145.0578°
orbit number at epoch: 0

The dashed part of the orbit path shows where the satellite is in the earth's shadow,  

DLR